Home   Weather   Charleroi   Past weeks

Flag for Belgium Past Weather in Charleroi, Belgium — Yesterday and Last 2 Weeks

Now
50 °F

Scattered clouds.


Feels Like: 47 °F
Forecast: 33 / 55 °F
Wind: 8 mph from Northwest

Location: Charleroi / Gosselies

Current Time: Apr 28, 2017 at 4:35:15 pm

Latest Report: Apr 28, 2017 at 3:20 pm


Visibility: N/A

Pressure: 29.98 "Hg

Humidity: 58%

Dew Point: 36 °F

Location of CharleroiLocation

Past Weather in Charleroi — Graph

°F

Charleroi Temperature Yesterday

Maximum temperature yesterday: 50 °F (at 5:20 pm)
Minimum temperature yesterday: 34 °F (at 4:20 am)
Average temperature yesterday: 41 °F

High & Low Weather Summary for the Past Weeks

 TemperatureHumidityPressure
High59 °F (Apr 24, 4:20 pm)100% (Apr 15, 7:50 am)30.63 "Hg (Apr 15, 7:50 am)
Low30 °F (Apr 20, 3:50 am)28% (Apr 20, 5:20 pm)29.77 "Hg (Apr 25, 1:20 am)
Average45 °F65%30.17 "Hg
* Reported Apr 13 2:20 pm — Apr 28 2:50 pm, Charleroi, Weather by CustomWeather, © 2017

Note: Actual official high and low records may vary slightly from our data, if they occured in-between our weather recording intervals... More about our weather records

Advertising

Charleroi Weather History for the Previous 24 Hours

Scroll right to see more
 ConditionsComfort  
Time TempWeatherWind HumidityBarometerVisibility
2:50 pm
Fri, Apr 28
52 °FScattered clouds.8 mph54%29.98 "HgN/A
2:20 pm50 °FScattered clouds.8 mph54%29.98 "HgN/A
1:50 pm48 °FScattered clouds.10 mph62%29.98 "HgN/A
1:20 pm48 °FScattered showers. Scattered clouds.7 mph71%29.95 "HgN/A
12:50 pm45 °FScattered showers. Scattered clouds.8 mph81%29.98 "HgN/A
12:20 pm48 °FScattered clouds.7 mph66%29.95 "HgN/A
11:50 am50 °FScattered clouds.8 mph58%29.95 "HgN/A
11:20 am48 °FScattered clouds.10 mph71%29.98 "HgN/A
10:50 am46 °FScattered clouds.8 mph76%29.98 "HgN/A
10:20 am46 °FScattered clouds.9 mph76%29.98 "HgN/A
9:50 am45 °FPassing clouds.9 mph87%29.98 "HgN/A
9:20 am45 °FBroken clouds.10 mph81%29.95 "HgN/A
8:50 am43 °FBroken clouds.12 mph81%29.95 "HgN/A
8:20 am41 °FBroken clouds.9 mph87%29.95 "HgN/A
7:50 am41 °FPartly sunny.9 mph87%29.95 "HgN/A
7:20 am39 °FLight rain. Partly sunny.10 mph87%29.95 "HgN/A
6:50 am39 °FBroken clouds.10 mph81%29.95 "HgN/A
6:20 am39 °FPartly cloudy.8 mph81%29.95 "HgN/A
5:50 am39 °FPassing clouds.7 mph81%29.95 "HgN/A
5:20 am39 °FPassing clouds.7 mph75%29.98 "HgN/A
4:50 am39 °FLight rain. Passing clouds.7 mph75%29.98 "HgN/A
4:20 am39 °FLight rain. Passing clouds.7 mph75%29.98 "HgN/A
3:50 am39 °FPassing clouds.5 mph70%29.98 "HgN/A
3:20 am39 °FPassing clouds.5 mph70%29.98 "HgN/A
2:50 am39 °FPassing clouds.6 mph70%29.98 "HgN/A
2:20 am39 °FPassing clouds.7 mph70%30.01 "HgN/A
1:50 am39 °FPassing clouds.5 mph70%30.01 "HgN/A
1:20 am39 °FPassing clouds.3 mph70%30.01 "HgN/A
12:50 am39 °FPassing clouds.2 mph65%30.01 "HgN/A
12:20 am41 °FClear.2 mph57%30.01 "Hg10 mi
11:50 pm
Thu, Apr 27
39 °FClear.2 mph61%30.01 "Hg10 mi
11:20 pm39 °FPassing clouds.2 mph65%30.01 "HgN/A
10:50 pm41 °FPassing clouds.2 mph61%30.01 "HgN/A
10:20 pm43 °FPassing clouds.2 mph57%30.01 "HgN/A
9:50 pm43 °FPassing clouds.2 mph57%30.01 "HgN/A
9:20 pm43 °FPassing clouds.3 mph61%30.01 "HgN/A
8:50 pm45 °FPassing clouds.3 mph57%30.01 "HgN/A
8:20 pm45 °FPassing clouds.5 mph57%30.01 "HgN/A
7:50 pm46 °FPassing clouds.6 mph53%30.01 "HgN/A
7:20 pm46 °FPassing clouds.7 mph50%30.01 "HgN/A
6:50 pm46 °FPassing clouds.9 mph53%30.01 "HgN/A
6:20 pm48 °FPassing clouds.7 mph54%30.01 "HgN/A
5:50 pm46 °FPassing clouds.12 mph53%30.01 "HgN/A
5:20 pm50 °FPassing clouds.8 mph40%30.01 "HgN/A
4:50 pm46 °FPassing clouds.8 mph53%30.01 "HgN/A
4:20 pm46 °FPassing clouds.5 mph62%30.04 "HgN/A
Weather by CustomWeather, © 2017

See weather overviewHow to use our weather pages